Location: Boiro
(42.6475°N, 8.8834°W)
Time: 05:51:15
(UTC+01:00)

Transit 4A - Pass Details

Date: 07 December 2021
Orbit: 864 x 980 km, 66.8° (Epoch: 17 January)

Event Time Altitude Azimuth Distance (km) Brightness Sun altitude
Exits shadow 06:35:16 16° 211° (SSW) 2,319 9.7 -24.4°
Drops below altitude 10° 06:36:47 10° 201° (SSW) 2,721 10.2 -24.1°
Sets 06:39:48 0° 189° (S) 3,667 11.0 -23.5°
